sat.trackr.live / text

‹ back to catalog

UNKNOWN

NORAD 81652

UNKNOWN UNKNOWN UNKNOWN

§ Identity

Operator
Country
Launch date
Launch site
Launch vehicle
Mass (kg)
RCS (m²)

External: N2YO · Heavens-Above

§ Orbital elements

Epoch: 2026-05-24T00:46:41.907072Z

Period
107.09 min
Inclination
102.1443°
Eccentricity
0.0365577
Mean motion
13.44601501 rev/d
Perigee alt
819.1 km
Apogee alt
1,365.3 km
Semi-major
7,470.3 km
B*
5.4289e-4
RAAN
71.1729°
Arg perigee
356.7834°
Mean anomaly
13.6990°
Rev number
60,046

§ Raw data

UNKNOWN1 81652U          26144.03242948  .00000412  00000+0  54289-3 0  99982 81652 102.1443  71.1729 0365577 356.7834  13.6990 13.44601501600464

JSON: /api/v1/satellites/81652 · /tle

For live sub-satellite position, see the globe view (requires WebGL).

§ Visibility from observer

Set your observer location to see the next 7 days of passes ≥ 10°. The values pass through the URL so the page stays shareable.

No JS? Fill the form by hand. The geolocation button needs JavaScript.